User: anonymous   Login
Location: Unspecified
(0.0000°N, 0.0000°E)
Time: 01:08:44
(UTC+02:00)
Language:

Cosmos 407 Rocket - Orbit

View from above orbital plane
View from above orbital plane
View from above satellite
View from above satellite

Ground track
Ground track

The orbit data is extracted from the following two-line orbital elements,

1 05175U 71035B   15179.88718389  .00000074  00000-0  33073-4 0  9990
2 05175 074.0489 092.5515 0029187 120.9451 239.4578 14.37706080311579
Epoch (UTC): 28 June 2015 21:17:32
Eccentricity: 0.0029187
inclination: 74.0489°
perigee height: 745 km
apogee height: 787 km
right ascension of ascending node: 92.5515°
argument of perigee: 120.9451°
revolutions per day: 14.37706080
mean anomaly at epoch: 239.4578°
orbit number at epoch: 31157

The dashed part of the orbit path shows where the satellite is in the earth's shadow,  

DLR